Location: Atzum
(52.1811°N, 10.5808°E)
Time: 09:34:59
(UTC+00:00)

Daily predictions for brighter satellites

Satellite Brightness Start Highest point End
(mag) Time Altitude Azimuth Time Altitude Azimuth Time Altitude Azimuth
Cosmos 2100 Rocket 4.5 19:35:18 10° SSW 19:41:33 70° WNW 19:47:53 10° N
NOSS 3-4 (A) 4.1 19:36:22 10° NW 19:42:41 59° NE 19:50:09 10° ESE
Meteor 1-27 4.2 19:37:18 10° S 19:42:55 78° E 19:48:31 10° NNE
SL-16 R/B 2.5 19:37:18 10° NNW 19:42:55 58° NE 19:48:31 10° SE
NOSS 3-4 (C) 4.1 19:36:59 10° NW 19:43:20 59° NE 19:50:48 10° ESE
Okean 1 Rocket 4.4 19:45:15 10° SSW 19:49:29 45° WNW 19:53:47 10° N
Cosmos 1544 Rocket 4.4 19:46:49 10° SSE 19:50:40 32° E 19:54:33 10° NNE
Cosmos 2233 Rocket 4.0 19:45:51 10° S 19:51:59 69° E 19:58:06 10° NNE
ATLAS 2AS CENTAUR R/B 4.0 19:46:24 10° W 19:52:58 44° NNW 19:59:28 10° NE
SKYMED 3 4.3 19:52:34 10° NNE 19:56:33 85° ESE 20:00:31 10° SSW
CZ-2C R/B 4.0 19:56:01 10° ESE 19:57:52 16° ENE 19:59:42 10° NNE
Cosmos 1980 Rocket 3.7 19:53:10 10° NW 19:58:14 33° WSW 20:03:14 10° S
COSMOS 2406 3.6 19:53:48 10° S 19:59:11 44° ESE 20:04:36 10° NE
Okean-O 2.6 19:56:01 10° SSE 20:00:23 87° ENE 20:04:48 10° NNW
Cosmos 1782 2.8 19:57:07 10° SSW 20:00:37 72° WNW 20:04:09 10° N
CZ-4 R/B 3.4 19:58:02 10° SSW 20:00:59 23° W 20:03:58 10° NW
Ariane Rocket 3.6 19:58:17 10° SE 20:03:02 44° ENE 20:07:50 10° N
Meteor 1-20 Rocket 4.4 19:58:28 10° N 20:04:01 64° ENE 20:09:39 10° SSE
Cosmos 1758 Rocket 3.6 20:01:31 10° N 20:05:55 69° ENE 20:10:19 10° SSE
Cosmos 1933 4.1 20:02:31 10° SSE 20:05:55 32° E 20:09:20 10° NNE
SPOT 3 Rocket 3.8 20:01:26 10° SE 20:06:27 58° ENE 20:11:30 10° N
Spot 2 Rocket 3.7 20:03:22 10° S 20:08:23 76° WSW 20:13:28 10° NNW
DNEPR-1 R/B 4.4 20:04:06 10° NW 20:09:24 75° NE 20:15:40 11° SE
Cosmos 1725 Rocket 4.4 20:04:32 10° SSW 20:10:45 67° WNW 20:16:59 10° N
Cosmos 2333 Rocket 2.3 20:05:04 10° NNW 20:10:48 78° ENE 20:16:16 11° SE
ERS-1 Rocket 4.4 20:10:04 10° SSW 20:14:39 35° W 20:19:16 10° NNW
Tsikada Rocket 4.3 20:11:30 10° NNW 20:17:38 67° W 20:23:42 10° S
Cosmos 2360 Rocket 2.5 20:19:03 10° NNW 20:24:43 62° NE 20:29:39 14° SE
USA 245 4.3 20:19:49 10° SSE 20:25:42 85° ENE 20:31:14 10° NNW
Cosmos 1461 2.8 20:23:30 10° SSW 20:27:03 45° SE 20:30:35 10° NE
CZ-4B R/B 3.4 20:25:36 13° SSE 20:29:54 73° ENE 20:34:46 10° NNW
Cosmos 1602 Rocket 3.5 20:25:49 10° N 20:30:08 70° ENE 20:33:49 14° SSE
CZ-4C R/B 3.3 20:26:33 10° W 20:30:59 44° NNW 20:36:44 10° NE
Cosmos 1992 Rocket 4.1 20:26:32 10° SSW 20:31:45 85° WNW 20:37:00 10° NNE
YAOGAN 11 4.2 20:28:47 10° NNE 20:33:14 82° WNW 20:37:41 10° SSW
Cosmos 1777 Rocket 4.1 20:31:44 10° NNW 20:36:59 72° ENE 20:41:09 16° SE
ISS -3.9 20:34:16 10° W 20:37:37 83° S 20:40:59 10° E
Cosmos 2219 Rocket 2.7 20:32:33 10° NNW 20:38:07 52° NE 20:42:48 14° SE
Meteor 1-25 Rocket 4.2 20:33:03 10° NNW 20:38:46 87° ENE 20:43:46 13° SSE
Cosmos 220 Rocket 4.0 20:36:23 10° S 20:40:18 50° ESE 20:44:17 10° NE
Cosmos 1437 Rocket 2.4 20:36:56 10° S 20:40:29 81° ESE 20:44:06 10° NNE
USA 290 3.6 20:39:45 19° SE 20:40:36 21° ESE 20:43:04 10° NE
SL-08 R/B 4.3 20:38:46 10° N 20:43:27 49° WNW 20:48:00 10° SW
Cosmos 1503 Rocket 4.1 20:40:18 10° NNW 20:45:30 66° ENE 20:49:23 18° SE
Cosmos 1626 Rocket 4.5 20:42:14 10° NNW 20:46:26 46° W 20:50:37 10° SSW
DEBRIS 3.7 20:44:03 10° WSW 20:47:24 68° S 20:58:17 10° E
Cosmos 2098 Rocket 3.2 20:44:22 14° S 20:48:24 56° E 20:52:26 10° NNE
Cosmos 1076 Rocket 4.1 20:44:43 10° N 20:48:48 42° ENE 20:51:27 19° SE
NOSS 3-3 (A) 4.0 20:45:00 10° SW 20:50:20 76° NW 20:56:53 10° NE
Terra 4.2 20:49:17 10° SW 20:52:33 18° W 20:55:50 10° NW
RESURS DK-1 4.3 20:50:47 10° N 20:53:53 21° NE 20:56:58 10° E
Cosmos 2151 3.7 20:50:29 10° NNW 20:54:27 48° W 20:58:09 11° SSW
Cosmos 2322 Rocket 2.2 20:50:51 10° NNW 20:56:32 80° WSW 21:00:46 19° SSE
Cosmos 1486 Rocket 4.1 20:51:20 10° NNW 20:56:37 75° WSW 21:00:35 18° SSE
IRS-1C Rocket 4.3 20:53:40 15° S 20:58:09 73° WSW 21:03:27 10° NNW
Cosmos 1513 Rocket 4.5 20:51:57 10° S 20:58:11 89° E 21:04:21 10° N
Cosmos 1464 Rocket 4.0 20:53:50 13° S 20:59:19 66° E 21:05:28 10° NNE
Cosmos 1354 Rocket 4.2 20:54:34 10° NNW 20:59:48 62° ENE 21:03:26 20° SE
Cosmos 909 Rocket 4.4 20:54:27 10° SW 21:00:43 71° NW 21:07:25 10° NE
Cosmos 2082 Rocket 3.5 20:56:54 10° WSW 21:02:22 44° NW 21:07:50 10° NNE
USA 306 2.0 21:01:31 10° W 21:04:05 45° N 21:04:50 26° NE
Meteor 2-10 4.3 20:59:08 10° NNW 21:04:55 89° WSW 21:09:14 18° S
Cosmos 1606 Rocket 3.5 21:03:17 19° S 21:06:18 64° E 21:10:35 10° NNE
Cosmos 1766 3.8 21:08:55 10° N 21:11:53 33° ENE 21:13:02 25° ESE
CZ-4B R/B 3.9 21:09:42 13° SSW 21:12:14 31° W 21:15:23 10° NNW
USA 186 4.4 21:13:00 10° WSW 21:13:47 11° W 21:14:34 10° WNW
Cosmos 2237 Rocket 4.1 21:09:46 10° NNW 21:14:20 24° NE 21:18:50 10° E
Cosmos 1428 Rocket 4.5 21:08:19 10° N 21:14:35 89° E 21:19:10 19° S
Cosmos 1726 Rocket 3.5 21:12:34 24° SSE 21:14:47 55° E 21:18:45 10° NNE
Okean O Rocket 3.8 21:13:02 10° SW 21:16:08 19° W 21:19:15 10° NW
Cosmos 1092 Rocket 4.3 21:10:19 10° N 21:16:24 56° ENE 21:20:29 21° SE
Cosmos 540 Rocket 3.8 21:13:16 21° SSE 21:16:25 45° ESE 21:21:18 10° NE
Aureole 1 Rocket 4.2 21:12:28 10° NNW 21:18:00 61° ENE 21:22:39 20° SE
Cosmos 1805 3.8 21:17:23 10° NNW 21:20:28 39° W 21:22:21 19° SSW
NOSS 3-3 (C) 4.4 21:16:57 10° WSW 21:22:22 62° NW 21:29:00 10° NE
COSMOS 2428 3.5 21:20:27 10° NNW 21:25:56 45° NE 21:30:13 16° ESE
SL-16 R/B 3.5 21:21:49 10° NW 21:26:43 31° WSW 21:30:55 13° SSW
Okean 1-7 Rocket 4.1 21:23:13 10° NNW 21:27:36 54° W 21:30:35 19° SSW
CZ-2C R/B 3.5 21:27:14 20° SW 21:28:25 28° W 21:30:54 10° NW
Geosat 4.3 21:27:40 10° NE 21:32:29 45° ESE 21:35:08 24° S
NOSS 3-4 (A) 4.3 21:27:13 10° NW 21:33:39 50° SW 21:38:38 21° S
NOSS 3-4 (C) 4.3 21:27:51 10° NW 21:34:18 50° SW 21:39:17 21° S
Cosmos-2242 3.1 21:34:03 30° SSE 21:35:46 52° E 21:39:48 10° NNE
Cosmos 2034 Rocket 4.0 21:32:54 18° S 21:37:44 83° E 21:44:06 10° NNE
Ariane Rocket 4.3 21:38:06 13° SSW 21:42:02 33° W 21:46:36 10° NNW
COSMOS 2406 4.4 21:38:03 10° WSW 21:43:31 44° NW 21:49:01 10° NNE
USA 234 4.3 21:41:34 10° ENE 21:46:25 22° SE 21:47:11 21° SE
TSX-5 3.4 21:46:02 10° NNW 21:49:08 66° NE 21:50:06 40° ESE
Cosmos 2333 Rocket 4.0 21:50:13 10° NW 21:54:30 22° WSW 21:58:17 12° SSW
Helios 1B rocket 1.9 21:55:11 43° SSE 21:56:13 82° ENE 21:59:45 10° NNW
Cosmos 2279 Rocket 4.4 21:53:17 26° SSE 21:56:36 50° E 22:02:36 10° NNE
Cosmos 1470 2.9 21:54:19 10° N 21:57:30 44° ENE 21:58:12 37° ESE
Cosmos 1763 Rocket 3.5 21:53:12 16° SSW 21:57:31 83° WNW 22:02:49 10° NNE
Cosmos 1536 2.5 21:54:19 10° NNW 21:58:02 86° W 21:59:12 42° S
Okean 1 4.1 21:56:18 19° SW 21:58:29 41° WNW 22:01:55 10° N
Cosmos 1898 Rocket 3.6 21:54:07 10° NNW 21:59:17 67° ENE 22:02:03 28° SE
Cosmos 2221 3.5 21:59:07 27° ESE 22:00:12 31° E 22:03:53 10° NNE
Cosmos 1707 1.8 21:59:51 63° SW 22:00:13 79° WNW 22:03:03 10° N
Cosmos 1634 Rocket 4.0 21:57:45 26° S 22:01:24 73° E 22:07:36 10° NNE
CSL-04 DEB 4.0 22:01:35 44° SSE 22:02:39 83° ENE 22:06:19 10° NNW
CZ-2C R/B 4.2 21:58:32 10° NNE 22:02:48 42° E 22:04:14 32° SE
Cosmos 1953 Rocket 4.2 21:58:40 10° NNW 22:02:52 47° W 22:04:56 26° SSW
Cosmos 1833 4.2 21:57:58 13° SSW 22:03:03 86° WNW 22:08:43 10° NNE
Cosmos 2297 Rocket 3.7 22:01:45 18° ESE 22:03:04 19° E 22:06:55 10° ENE
Cosmos 44 3.6 21:59:11 10° NW 22:04:32 62° SW 22:06:56 32° SSE
Cosmos 2360 Rocket 3.5 22:03:34 10° NW 22:08:20 28° WSW 22:11:23 18° SSW
Cosmos 2322 3.7 22:05:01 10° NNW 22:10:46 88° ENE 22:13:46 29° SSE
Meteor 2-6 Rocket 4.4 22:08:15 29° S 22:11:24 67° E 22:17:18 10° NNE
Cosmos 2026 Rocket 4.5 22:08:05 10° NNW 22:14:17 56° W 22:18:17 23° SSW
ISS -3.7 22:11:03 10° W 22:14:20 55° SSW 22:14:20 55° SSW
USA 290 4.0 22:12:10 12° WSW 22:14:35 29° NW 22:17:24 10° N
Cosmos 2058 Rocket 3.1 22:14:25 31° SSW 22:16:27 73° WNW 22:20:48 10° N
GP-B 4.3 22:13:31 10° NNE 22:17:23 30° E 22:18:52 24° ESE
CZ-4C R/B 4.4 22:15:58 10° WNW 22:20:37 29° N 22:26:25 10° ENE
Helios 1A 3.2 22:16:46 10° N 22:20:38 59° WNW 22:22:29 28° SW
SAR-Lupe-2 4.1 22:20:01 37° ESE 22:20:44 43° ENE 22:23:55 10° N
Cosmos 2219 Rocket 3.2 22:16:48 10° NW 22:21:52 34° WSW 22:24:29 23° SSW
Cosmos 2266 Rocket 4.3 22:17:36 10° N 22:23:34 57° ENE 22:26:50 27° SE
Cosmos 1975 2.6 22:20:53 10° N 22:24:34 73° E 22:25:24 50° SSE
KORONAS-FOTON 3.7 22:25:06 45° SW 22:25:56 64° WNW 22:29:19 10° N
Cosmos 841 Rocket 3.7 22:28:15 34° SSE 22:30:11 53° ESE 22:35:17 10° NNE
RESURS DK-1 2.2 22:27:40 10° NW 22:31:38 68° WSW 22:32:35 48° S
ARIANE 5 R/B 2.6 22:32:16 40° S 22:33:52 80° WSW 22:38:22 10° NNW
Meteor 1-19 Rocket 4.4 22:32:11 32° SSE 22:34:51 63° E 22:40:44 10° NNE
ALOS 2 2.5 22:33:58 40° SSE 22:35:31 89° ENE 22:39:57 10° NNW
Cosmos 2322 Rocket 4.2 22:36:23 10° WNW 22:39:41 16° W 22:42:34 11° SW
SL-16 R/B 3.9 22:41:52 10° NNW 22:46:52 30° NE 22:51:50 10° ESE
Cosmos 1271 Rocket 2.6 22:46:13 48° SW 22:46:54 61° WNW 22:50:15 10° N
Cosmos 1842 3.4 22:47:39 39° WSW 22:48:11 44° WNW 22:51:15 10° N
Lacrosse 4 Rocket 3.0 22:51:57 20° ESE 22:51:57 20° ESE 22:54:47 10° ENE
Meteor 2-9 Rocket 4.3 22:48:14 10° NNW 22:53:33 61° W 22:55:56 33° SSW
Spot 4 4.1 22:51:57 35° SSW 22:53:41 56° W 22:58:25 10° NNW
Cosmos 1766 Rocket 4.2 22:49:34 10° N 22:53:43 45° ENE 22:55:20 31° SE
PSLV R/B 3.5 22:50:22 10° NNE 22:54:39 74° ESE 22:55:59 43° S
Cosmos 2237 Rocket 2.2 22:53:31 10° NNW 22:59:15 82° ENE 23:02:17 29° SE
CZ-2C R/B 2.8 22:58:58 29° SE 23:01:37 63° ENE 23:06:45 10° N
BREEZE-M DEB (TANK) 3.9 22:48:30 10° WSW 23:02:11 73° SSE 23:05:46 10° ENE
Cosmos 1980 3.6 22:57:42 10° NNW 23:03:24 88° WSW 23:06:13 31° SSE
ARGOS Delta rocket 4.1 22:58:54 10° N 23:04:03 79° WNW 23:06:31 33° SSW
Cosmos 858 Rocket 4.4 22:59:30 10° NNW 23:04:41 74° WSW 23:06:42 37° S
Cosmos 1937 Rocket 3.8 23:02:45 10° NNW 23:07:44 51° WSW 23:09:26 35° SSW
NOSS 8 (H) 4.5 23:06:34 10° NW 23:08:57 51° W 23:08:57 51° W
COSMOS 2428 3.3 23:04:50 10° NW 23:10:10 42° WSW 23:12:10 31° SSW
NOSS 0 Rocket 4.2 23:06:55 10° NW 23:12:53 53° WSW 23:15:26 33° S
Cosmos 2227 Rocket 3.4 23:11:04 23° SE 23:12:56 27° ESE 23:17:38 10° NE
Meteor 1-11 Rocket 3.8 23:07:45 10° NNW 23:13:22 64° W 23:15:45 34° SSW
Meteor 2-4 Rocket 4.1 23:11:49 32° SSE 23:14:03 51° E 23:19:26 10° NNE
MetOp-A 3.8 23:18:10 39° S 23:19:56 70° WSW 23:24:37 10° NNW
Meteor 1-10 Rocket 4.4 23:17:23 31° SSW 23:20:22 78° WNW 23:26:21 10° N
Cosmos 2263 Rocket 3.8 23:20:54 18° SE 23:22:53 21° ESE 23:26:59 10° NE
Cosmos 1238 Rocket 2.9 23:25:54 48° SSE 23:26:55 71° E 23:31:18 10° NNE
Cosmos 1812 Rocket 4.1 23:25:18 33° SW 23:26:57 52° WNW 23:31:19 10° N
USA 234 3.3 23:23:51 10° ENE 23:30:21 62° SE 23:34:29 24° SW
SeaSat 1 2.6 23:28:37 23° SE 23:31:39 72° NE 23:36:33 10° NNW
CZ-2C R/B 3.3 23:27:10 10° NNE 23:32:57 90° WNW 23:35:48 32° SSW
Cosmos 1758 4.4 23:30:40 10° N 23:33:58 32° ENE 23:35:23 24° ESE
ACS3 Solar Sail 2.6 23:28:36 10° NNE 23:34:12 40° E 23:37:20 23° SSE
Meteor 1-27 Rocket 3.7 23:32:34 33° SSW 23:35:21 87° WNW 23:41:07 10° NNE
Cosmos 2221 3.8 23:35:23 22° WSW 23:37:11 31° WNW 23:40:58 10° N
ATLAS 2AS CENTAUR R/B 3.8 23:31:25 10° NW 23:37:55 45° NNE 23:44:24 10° E
Meteor 2-20 Rocket 4.2 23:37:28 33° S 23:40:09 89° ESE 23:45:55 10° N
BlueWalker 3 3.1 23:41:17 26° ESE 23:41:17 26° ESE 23:43:24 10° E
Cosmos 2297 Rocket 2.2 23:43:29 31° SSW 23:46:22 87° WNW 23:52:03 10° NNE
Cosmos 1125 Rocket 4.2 23:41:14 10° NNW 23:46:26 52° ENE 23:50:47 14° SE
Okean 3 Rocket 3.9 23:42:48 10° N 23:47:18 62° ENE 23:49:21 30° SSE
Landsat 5 3.3 23:46:26 10° NNE 23:50:33 74° ESE 23:51:40 45° S
Cosmos 1340 Rocket 4.1 23:47:42 10° N 23:51:14 34° ENE 23:53:20 19° ESE
GP-B 4.1 23:50:29 10° NNW 23:54:26 34° W 23:56:01 26° WSW
Cosmos 1842 Rocket 3.5 23:53:33 41° S 23:55:03 77° E 23:59:29 10° NNE
